This is the latest recevied weather packets stored in our database for station/object WA6TJQ. If no packets are shown the sender has not sent any weather packets the latest 10 day(s).
| Time | Temp. | Humidity | Pressure | Rain* | Wind** | Luminosity | Snow |
|---|---|---|---|---|---|---|---|
| 1777734437 | 11.11° C | 37% | 1011.9 hPa | 0 mm | - | - | - |
| 1777734137 | 11.11° C | 41% | 1011.7 hPa | 0 mm | - | - | - |
| 1777733837 | 10.56° C | 41% | 1011.9 hPa | 0 mm | - | - | - |
| 1777733537 | 10.56° C | 45% | 1011.8 hPa | 0 mm | - | - | - |
| 1777733237 | 10.56° C | 45% | 1012 hPa | 0 mm | - | - | - |
| 1777732937 | 10.56° C | 45% | 1011.9 hPa | 0 mm | - | - | - |
| 1777732637 | 10° C | 43% | 1011.8 hPa | 0 mm | - | - | - |
| 1777732337 | 10° C | 45% | 1011.8 hPa | 0 mm | - | - | - |
| 1777732037 | 10° C | 43% | 1011.8 hPa | 0 mm | - | - | - |
| 1777731737 | 10° C | 43% | 1011.8 hPa | 0 mm | - | - | - |
| 1777731437 | 10° C | 42% | 1011.7 hPa | 0 mm | - | - | - |
| 1777731137 | 9.44° C | 42% | 1011.8 hPa | 0 mm | - | - | - |
| 1777730837 | 9.44° C | 41% | 1011.6 hPa | 0 mm | - | - | - |
| 1777730537 | 9.44° C | 43% | 1011.5 hPa | 0 mm | - | - | - |
| 1777730237 | 9.44° C | 42% | 1011.4 hPa | 0 mm | - | - | - |
| 1777729937 | 9.44° C | 42% | 1011.5 hPa | 0 mm | - | - | - |
| 1777729037 | 8.89° C | 41% | 1011.6 hPa | 0 mm | - | - | - |
| 1777725737 | 8.89° C | 41% | 1011 hPa | 0 mm | - | - | - |
| 1777725437 | 8.89° C | 41% | 1011 hPa | 0 mm | - | - | - |
| 1777725137 | 8.89° C | 41% | 1011.1 hPa | 0 mm | - | - | - |
| 1777724837 | 8.89° C | 40% | 1011 hPa | 0 mm | - | - | - |
| 1777724537 | 8.89° C | 41% | 1010.9 hPa | 0 mm | - | - | - |
| 1777724237 | 8.89° C | 41% | 1011 hPa | 0 mm | - | - | - |
| 1777723937 | 8.89° C | 40% | 1011.1 hPa | 0 mm | - | - | - |
| 1777723637 | 8.89° C | 41% | 1011 hPa | 0 mm | - | - | - |
* Rain latest hour (hover to see other rain measurements)
** Current wind speed in m/s (hover to see current wind gust speed)